| time (UTC) | temp F | wind direction | speed MPH | gust MPH | rain 1hr in | rain 24hr in | rain mn in | humidity % | barometer mb |
| 20260504045620 | 38 | 311 | 0.0 | 2.0 | 0.00 | 0.00 | 0.00 | 1004.1 | |
| 20260504044121 | 39 | 249 | 1.0 | 3.0 | 0.00 | 0.00 | 0.00 | 1004.1 | |
| 20260504042620 | 39 | 260 | 2.0 | 5.0 | 0.00 | 0.00 | 0.00 | 1003.8 | |
| 20260504041620 | 39 | 205 | 0.0 | 5.0 | 0.00 | 0.00 | 0.00 | 1003.8 | |
| 20260504040120 | 39 | 180 | 1.0 | 5.0 | 0.00 | 0.00 | 0.00 | 1003.4 | |
| 20260504035619 | 39 | 290 | 2.0 | 5.0 | 0.00 | 0.00 | 0.00 | 1003.4 | |
| 20260504032619 | 40 | 15 | 0.0 | 7.0 | 0.00 | 0.00 | 0.00 | 1003.1 | |
| 20260504032119 | 40 | 305 | 0.0 | 8.0 | 0.00 | 0.00 | 0.00 | 1003.1 | |
| 20260504025621 | 41 | 238 | 1.0 | 4.0 | 0.00 | 0.00 | 0.00 | 1003.1 | |
| 20260504025121 | 41 | 229 | 0.0 | 3.0 | 0.00 | 0.00 | 0.00 | 1002.8 | |
| 20260504020620 | 40 | 335 | 0.0 | 3.0 | 0.00 | 0.00 | 0.00 | 1002.8 | |
| 20260504020121 | 40 | 318 | 0.0 | 3.0 | 0.00 | 0.00 | 0.00 | 1002.8 | |
| 20260504015620 | 40 | 203 | 0.0 | 3.0 | 0.00 | 0.00 | 0.00 | 1002.4 | |
| 20260504014620 | 40 | 149 | 0.0 | 0.0 | 0.00 | 0.00 | 0.00 | 1002.4 | |
| 20260504013620 | 40 | 149 | 0.0 | 4.0 | 0.00 | 0.00 | 0.00 | 1002.4 | |
| 20260504004619 | 40 | 214 | 3.0 | 8.0 | 0.00 | 0.00 | 0.00 | 1001.7 | |
| 20260504001619 | 40 | 235 | 1.0 | 4.0 | 0.00 | 0.00 | 0.00 | 1001.4 | |
| 20260504001119 | 40 | 257 | 1.0 | 3.0 | 0.00 | 0.00 | 0.00 | 1001.1 | |
| 20260504000120 | 40 | 44 | 1.0 | 4.0 | 0.00 | 0.00 | 0.00 | 1001.1 | |
| 20260503235619 | 40 | 163 | 2.0 | 5.0 | 0.00 | 0.00 | 0.00 | 1001.1 | |
| 20260503234621 | 40 | 321 | 3.0 | 6.0 | 0.00 | 0.00 | 0.00 | 1000.7 | |
| 20260503234121 | 40 | 300 | 1.0 | 7.0 | 0.00 | 0.00 | 0.00 | 1000.7 | |
| 20260503233621 | 40 | 335 | 1.0 | 7.0 | 0.00 | 0.00 | 0.00 | 1000.7 | |
| 20260503233120 | 40 | 308 | 1.0 | 9.0 | 0.00 | 0.00 | 0.00 | 1000.7 | |
| 20260503232619 | 40 | 139 | 3.0 | 9.0 | 0.00 | 0.00 | 0.00 | 1000.7 | |
| 20260503232120 | 40 | 97 | 0.0 | 6.0 | 0.00 | 0.00 | 0.00 | 1000.7 | |
| 20260503224120 | 41 | 238 | 1.0 | 10.0 | 0.00 | 0.00 | 0.00 | 1000.4 | |
| 20260503222619 | 41 | 301 | 2.0 | 11.0 | 0.00 | 0.00 | 0.00 | 1000.4 |